{"data":{"norad_id":57052,"intl_designator":"2023-088E","name":"STARLINK-5860","alt_names":[],"object_type":"PAYLOAD","status":"ACTIVE","operator":null,"country":"US","launch_date":"2023-06-22","launch_site_code":"AFWTR","launch_vehicle":null,"mission":null,"orbit_class":"UNKNOWN","rcs_meters":null,"size_class":null,"mass_kg":null,"dimensions":null,"purposes":["comms"],"wikipedia_slug":null,"has_3d_model":false,"image_url":null,"decayed_at":null,"tle_current":{"epoch":"2026-09-20T22:03:33.221664Z","epoch_age_seconds":81796,"freshness":"FRESH","line1":"1 57052U 23088E   26263.91913451  .00001651  00000+0  69527-4 0  9997","line2":"2 57052  43.0031  87.8218 0001466 271.6425  88.4259 15.27571937180192","mean_motion":15.27571937,"eccentricity":0.0001466,"inclination_deg":43.0031,"raan_deg":87.8218,"arg_perigee_deg":271.6425,"mean_anomaly_deg":88.4259,"bstar":6.9527e-5,"rev_number":18019,"period_min":94.267246282883,"perigee_km":482.06738624736,"apogee_km":484.07909308963,"semimajor_km":6861.2102396685,"source":"CELESTRAK","updated_at":"2026-09-21T09:00:33.548586Z"}}}